Location: Acequia del Cap
(41.7000°N, 0.6167°E)
Time: 15:55:07
(UTC+00:00)

SAR-Lupe-4 - Pass Details

Date: 07 August 2020
Orbit: 482 x 484 km, 98.2° (Epoch: 21 September)

Event Time Altitude Azimuth Distance (km) Brightness Sun altitude
Rises 04:11:37 0° 162° (SSE) 2,530 7.1 -8.6°
Reaches altitude 10° 04:13:40 10° 161° (SSE) 1,655 6.2 -8.2°
Maximum altitude 04:17:13 77° 75° (ENE) 501 3.8 -7.7°
Drops below altitude 10° 04:20:47 10° 350° (N) 1,669 6.5 -7.1°
Sets 04:22:51 0° 349° (N) 2,554 7.5 -6.8°
